Total_Precipitation_Accumulation
1.44 1.50 1.55 1.64 1.71 1.76 1.78 1.76 1.75 1.75 1.77 1.78 1.87 1.91 1.92 1.96 2.14 2.32 2.23 2.48 2.60 2.65 2.49 2.43 2.35 2.35 2.32 2.15 2.23 2.38 2.46 2.75 2.71 2.09 1.95 2.05 2.14 2.10 2.18 2.08 2.00 2.01 1.84
1.41 1.54 1.60 1.76 1.79 1.72 1.72 1.91 1.92 1.90 1.89 1.89 1.96 2.05 2.03 2.04 2.17 2.17 2.04 2.16 2.36 2.55 2.77 2.88 2.61 2.56 2.54 2.35 2.37 2.38 2.43 2.64 2.66 2.43 2.22 2.22 2.30 2.27 2.28 2.09 1.76 1.67 1.71
1.34 1.49 1.69 1.75 1.79 1.91 2.05 2.20 2.25 2.17 2.13 2.14 2.20 2.16 2.18 2.22 2.21 2.13 2.15 2.18 2.27 2.36 2.61 2.84 2.82 2.93 2.66 2.63 2.55 2.43 2.38 2.35 2.54 2.39 2.20 2.37 2.39 2.37 2.34 1.99 1.81 1.85 1.69
1.53 1.70 1.82 1.99 2.10 2.16 2.13 2.21 2.23 2.24 2.28 2.30 2.35 2.30 2.26 2.29 2.31 2.30 2.28 2.25 2.31 2.30 2.36 2.46 2.58 2.85 2.81 2.84 2.65 2.64 2.69 2.67 2.73 2.60 2.48 2.58 2.70 2.70 2.58 2.24 2.09 1.98 1.85
1.84 1.93 1.95 2.02 2.13 2.27 2.40 2.42 2.40 2.39 2.35 2.52 2.51 2.44 2.46 2.47 2.28 2.38 2.56 2.52 2.59 2.41 2.32 2.29 2.26 2.49 2.56 2.61 2.36 2.50 2.74 2.76 2.76 2.70 2.64 2.69 2.71 2.86 2.57 2.38 2.22 2.20 2.07
2.31 2.42 2.53 2.59 2.65 2.71 2.74 2.77 2.82 2.77 2.72 2.65 2.55 2.59 2.59 2.38 2.50 2.54 2.44 2.48 2.66 2.66 2.54 2.47 2.33 2.27 2.26 2.30 2.32 2.39 2.51 2.51 2.55 2.60 2.55 2.57 2.65 2.77 2.90 2.76 2.55 2.35 2.10
2.45 2.55 2.67 2.77 2.89 2.99 3.02 3.03 2.91 2.85 2.79 2.67 2.66 2.71 2.65 2.67 2.63 2.40 2.25 2.25 2.32 2.42 2.47 2.46 2.19 2.04 2.24 2.15 2.32 2.35 2.17 2.10 2.11 2.22 2.23 2.27 2.70 2.99 3.28 2.97 2.79 2.59 2.29
2.56 2.64 2.67 2.72 2.82 2.97 3.13 3.08 2.94 2.91 2.86 2.81 2.75 2.62 2.54 2.46 2.47 2.23 2.21 2.10 2.03 1.99 2.10 2.22 2.18 2.08 2.11 2.20 2.15 1.93 1.75 1.75 1.80 1.69 1.70 1.96 2.40 2.95 3.25 3.21 3.18 2.93 2.58
2.27 2.44 2.45 2.57 2.76 2.87 2.91 2.94 3.01 2.99 2.79 2.65 2.53 2.47 2.42 2.48 2.66 2.39 2.24 2.03 2.02 1.88 1.87 1.88 1.92 1.81 1.94 2.03 1.94 1.73 1.60 1.55 1.59 1.60 1.56 1.75 2.02 2.36 2.77 2.99 2.86 2.67 2.28
2.25 2.44 2.61 2.74 2.88 2.92 2.97 3.08 3.10 3.04 3.00 2.97 2.82 2.71 2.61 2.58 2.75 2.48 2.28 2.05 2.03 1.97 1.97 1.96 2.04 1.82 1.73 1.69 1.61 1.62 1.45 1.37 1.48 1.47 1.43 1.45 1.55 1.84 2.28 2.37 2.37 2.44 2.18
2.28 2.37 2.51 2.69 2.91 3.16 3.32 3.24 3.21 3.16 3.06 2.87 2.69 2.54 2.48 2.49 2.46 2.25 2.11 1.85 1.81 1.87 1.76 1.66 1.71 1.74 1.53 1.38 1.36 1.33 1.28 1.33 1.40 1.38 1.30 1.28 1.41 1.55 1.72 1.98 2.16 2.17 2.07
2.38 2.46 2.52 2.70 2.78 2.93 3.17 3.19 3.10 3.07 2.98 2.85 2.77 2.67 2.58 2.45 2.22 1.99 1.83 1.70 1.70 1.69 1.74 1.75 1.80 1.82 1.55 1.39 1.25 1.13 1.17 1.16 1.16 1.25 1.23 1.18 1.22 1.32 1.55 1.82 2.11 2.19 2.10
2.38 2.52 2.69 2.76 2.80 2.90 3.06 3.12 3.08 2.98 2.85 2.71 2.57 2.36 2.35 2.40 2.31 2.05 1.77 1.62 1.60 1.54 1.72 2.02 2.03 1.97 1.75 1.46 1.36 1.35 1.26 1.12 1.13 1.15 1.14 1.10 1.15 1.31 1.60 1.92 2.15 2.34 2.29
2.35 2.40 2.55 2.68 2.80 2.94 2.95 2.83 2.69 2.53 2.46 2.40 2.26 2.14 2.15 2.21 2.11 2.01 1.85 1.74 1.70 1.60 1.66 1.93 2.07 2.09 1.97 1.77 1.67 1.58 1.36 1.27 1.34 1.33 1.34 1.37 1.48 1.62 1.77 1.91 2.12 2.29 2.36
2.34 2.39 2.38 2.40 2.48 2.63 2.70 2.64 2.49 2.32 2.19 2.11 2.00 1.98 1.97 1.95 1.96 1.96 1.81 1.70 1.67 1.72 1.83 2.01 2.16 2.26 2.27 2.20 2.10 2.01 1.88 1.72 1.57 1.54 1.59 1.59 1.63 1.72 1.79 1.94 2.16 2.26 2.21
2.40 2.27 2.19 2.10 2.10 2.14 2.15 2.19 2.27 2.13 2.11 1.96 1.84 1.77 1.71 1.74 1.75 1.70 1.61 1.54 1.59 1.73 1.79 1.90 2.14 2.33 2.40 2.48 2.51 2.40 2.19 2.01 1.85 1.83 1.78 1.74 1.76 1.77 1.80 1.96 2.18 2.29 2.16
2.29 2.16 2.06 1.98 1.96 1.90 1.88 1.89 1.98 2.01 1.94 1.83 1.80 1.67 1.54 1.58 1.55 1.51 1.51 1.51 1.55 1.62 1.64 1.77 1.88 1.99 2.18 2.39 2.48 2.47 2.26 2.14 2.15 2.12 2.03 1.98 1.99 1.99 1.99 2.10 2.29 2.40 2.35
2.12 2.17 2.04 1.92 1.95 1.96 1.94 1.92 1.92 1.94 1.91 1.80 1.78 1.74 1.50 1.38 1.36 1.38 1.41 1.36 1.28 1.31 1.39 1.56 1.74 1.88 2.03 2.29 2.44 2.48 2.43 2.36 2.37 2.41 2.36 2.29 2.26 2.20 2.12 2.06 2.20 2.32 2.36
1.92 1.97 2.02 2.03 2.00 2.02 2.04 1.94 1.84 1.80 1.81 1.71 1.64 1.70 1.64 1.45 1.35 1.36 1.37 1.25 1.19 1.21 1.30 1.35 1.43 1.63 1.84 2.08 2.31 2.48 2.48 2.39 2.34 2.39 2.37 2.31 2.29 2.28 2.16 2.06 2.12 2.31 2.39
1.81 1.96 1.91 1.96 1.97 1.93 1.98 1.99 1.96 1.95 1.90 1.79 1.68 1.66 1.65 1.51 1.38 1.48 1.55 1.52 1.43 1.40 1.39 1.41 1.50 1.67 1.84 2.05 2.25 2.36 2.41 2.41 2.38 2.35 2.28 2.22 2.21 2.20 2.07 2.01 2.03 2.13 2.17
1.65 1.71 1.80 1.66 1.70 1.80 1.80 1.83 1.88 1.92 1.90 1.79 1.65 1.62 1.56 1.40 1.47 1.57 1.67 1.71 1.64 1.55 1.51 1.51 1.56 1.65 1.82 2.02 2.16 2.26 2.29 2.33 2.36 2.36 2.31 2.22 2.19 2.20 2.16 2.11 2.08 2.11 2.11
1.65 1.55 1.55 1.56 1.70 1.78 1.84 1.85 1.88 1.85 1.81 1.77 1.72 1.73 1.71 1.48 1.54 1.62 1.66 1.73 1.77 1.76 1.70 1.70 1.70 1.70 1.77 1.92 2.09 2.21 2.23 2.24 2.27 2.31 2.33 2.31 2.30 2.27 2.33 2.35 2.29 2.25 2.23
1.68 1.64 1.59 1.57 1.69 1.83 1.86 1.88 1.91 1.88 1.85 1.82 1.78 1.76 1.76 1.68 1.70 1.78 1.81 1.84 1.85 1.82 1.77 1.76 1.75 1.77 1.81 1.83 1.91 2.04 2.11 2.11 2.07 2.12 2.22 2.20 2.15 2.13 2.17 2.21 2.23 2.26 2.24
1.52 1.60 1.62 1.60 1.64 1.67 1.70 1.72 1.71 1.69 1.71 1.72 1.75 1.82 1.84 1.84 1.88 1.92 1.87 1.81 1.75 1.72 1.72 1.70 1.68 1.67 1.71 1.76 1.79 1.78 1.83 1.89 1.84 1.84 1.95 2.05 2.04 2.00 2.03 2.04 2.11 2.19 2.29
1.36 1.52 1.59 1.57 1.55 1.57 1.55 1.48 1.47 1.54 1.65 1.76 1.82 1.84 1.88 1.89 1.88 1.81 1.71 1.62 1.55 1.58 1.61 1.60 1.58 1.50 1.46 1.48 1.52 1.55 1.70 1.74 1.71 1.69 1.69 1.80 1.85 1.88 1.92 1.95 2.01 2.14 2.30
1.36 1.48 1.53 1.53 1.53 1.56 1.59 1.55 1.48 1.52 1.61 1.65 1.71 1.71 1.72 1.73 1.72 1.67 1.58 1.51 1.47 1.46 1.51 1.53 1.47 1.35 1.31 1.31 1.32 1.37 1.37 1.33 1.40 1.54 1.56 1.60 1.73 1.82 1.83 1.84 1.86 1.97 2.08